Terug naar catalogus

FENGYUN 1C DEB

LostPO
NORAD 37468·DEBRIS·🇨🇳 China

Gelanceerd May 10, 1999 vanaf Taiyuan Satellite Launch Center

Loading…

Volgende Passages (komende 24 uur)

TLE

VerouderdSource: Space-Track

Epoch: Apr 25, 2017, 01:45 UTC

1 37468U 99025EJN 17115.07303952 +.00000849 +00000-0 +56877-3 0  9994
2 37468 098.1470 065.1017 0071628 054.5360 302.6292 14.01911759386757

Volg FENGYUN 1C DEB in realtime met AllMySat

Download on the App Store